UAE41T OMDB-OBBI

Flight info

Callsign UAE41T
Flight time 0h 54m
Altitude 26000
Route NABIX P699 ORMID Y856 ALKAN/N0369F180 Y856 SOLOB/N0359F160 Y856 ORDIG
Aircraft A388/J-SADE2E3FGHIJ3J4J5M1RWXY/LB1D1

Departure

Time 2026-04-24 14:48
Airport Dubai International Airport (OMDB)

Arrival

Time 2026-04-24 15:43
Airport Bahrain International Airport (OBBI)
Time Latitude Longitude Altitude Speed Heading
2026-04-24 14:17 25.24482 55.37143 26 ft 0 kts 211°
2026-04-24 14:33 25.24497 55.37152 26 ft 2 kts 208°
2026-04-24 14:33 25.24512 55.37160 26 ft 2 kts 202°
2026-04-24 14:33 25.24529 55.37165 26 ft 2 kts 194°
2026-04-24 14:34 25.24545 55.37167 24 ft 2 kts 182°
2026-04-24 14:34 25.24562 55.37164 26 ft 2 kts 165°
2026-04-24 14:34 25.24576 55.37155 26 ft 2 kts 145°
2026-04-24 14:34 25.24588 55.37142 25 ft 2 kts 129°
2026-04-24 14:35 25.24591 55.37137 26 ft 0 kts 125°
2026-04-24 14:37 25.24590 55.37139 27 ft 2 kts 124°
2026-04-24 14:38 25.24570 55.37172 27 ft 8 kts 123°
2026-04-24 14:38 25.24527 55.37247 27 ft 14 kts 122°
2026-04-24 14:38 25.24499 55.37295 27 ft 0 kts 122°
2026-04-24 14:38 25.24497 55.37297 27 ft 1 kts 122°
2026-04-24 14:39 25.24483 55.37322 27 ft 7 kts 123°
2026-04-24 14:39 25.24447 55.37385 27 ft 13 kts 122°
2026-04-24 14:39 25.24391 55.37488 27 ft 18 kts 120°
2026-04-24 14:39 25.24323 55.37618 27 ft 21 kts 121°
2026-04-24 14:40 25.24281 55.37695 27 ft 1 kts 120°
2026-04-24 14:40 25.24268 55.37722 27 ft 5 kts 111°
2026-04-24 14:40 25.24273 55.37768 27 ft 6 kts 53°
2026-04-24 14:40 25.24312 55.37800 28 ft 7 kts 34°
2026-04-24 14:41 25.24324 55.37809 28 ft 4 kts 34°
2026-04-24 14:41 25.24331 55.37814 28 ft 0 kts 34°
2026-04-24 14:41 25.24332 55.37815 28 ft 1 kts 34°
2026-04-24 14:42 25.24349 55.37828 29 ft 5 kts 34°
2026-04-24 14:42 25.24380 55.37851 31 ft 6 kts 34°
2026-04-24 14:42 25.24414 55.37877 33 ft 6 kts 34°
2026-04-24 14:42 25.24452 55.37905 35 ft 8 kts 34°
2026-04-24 14:43 25.24507 55.37947 35 ft 12 kts 34°
2026-04-24 14:43 25.24577 55.38000 30 ft 0 kts 34°
2026-04-24 14:43 25.24596 55.38014 30 ft 7 kts 34°
2026-04-24 14:43 25.24621 55.38033 30 ft 0 kts 34°
2026-04-24 14:45 25.24631 55.38040 30 ft 3 kts 34°
2026-04-24 14:45 25.24636 55.38044 30 ft 0 kts 34°
2026-04-24 14:45 25.24648 55.38053 31 ft 4 kts 32°
2026-04-24 14:45 25.24677 55.38073 32 ft 6 kts 32°
2026-04-24 14:46 25.24713 55.38097 34 ft 6 kts 21°
2026-04-24 14:46 25.24750 55.38098 35 ft 6 kts 342°
2026-04-24 14:46 25.24780 55.38075 35 ft 0 kts 302°
2026-04-24 14:46 25.24781 55.38073 35 ft 0 kts 301°
2026-04-24 14:47 25.24782 55.38073 35 ft 1 kts 301°
2026-04-24 14:47 25.24960 55.37754 35 ft 98 kts 302°
2026-04-24 14:47 25.25480 55.36841 38 ft 169 kts 302°
2026-04-24 14:48 25.26127 55.35687 391 ft 190 kts 301°
2026-04-24 14:48 25.26831 55.34418 799 ft 201 kts 302°
2026-04-24 14:48 25.27576 55.33061 1248 ft 211 kts 303°
2026-04-24 14:48 25.28349 55.31630 1654 ft 225 kts 302°
2026-04-24 14:49 25.29073 55.30131 2337 ft 230 kts 291°
2026-04-24 14:49 25.29201 55.28357 3133 ft 231 kts 258°
2026-04-24 14:49 25.28555 55.26739 3895 ft 231 kts 241°
2026-04-24 14:49 25.27728 55.25201 4636 ft 232 kts 240°
2026-04-24 14:50 25.26896 55.23651 5372 ft 234 kts 242°
2026-04-24 14:50 25.26139 55.22036 5953 ft 244 kts 251°
2026-04-24 14:50 25.25848 55.20196 6227 ft 263 kts 267°
2026-04-24 14:50 25.25822 55.18065 6748 ft 271 kts 270°
2026-04-24 14:51 25.25843 55.15985 7397 ft 273 kts 270°
2026-04-24 14:51 25.25850 55.13888 8065 ft 275 kts 269°
2026-04-24 14:51 25.25832 55.11762 8712 ft 278 kts 268°
2026-04-24 14:51 25.25767 55.09615 9385 ft 281 kts 267°
2026-04-24 14:52 25.25687 55.07457 10024 ft 283 kts 267°
2026-04-24 14:52 25.25587 55.05239 10460 ft 293 kts 266°
2026-04-24 14:52 25.25449 55.02986 11009 ft 296 kts 265°
2026-04-24 14:52 25.25302 55.00684 11600 ft 299 kts 265°
2026-04-24 14:53 25.25147 54.98381 12182 ft 302 kts 265°
2026-04-24 14:53 25.24957 54.96052 12745 ft 305 kts 263°
2026-04-24 14:53 25.24704 54.93733 13014 ft 314 kts 262°
2026-04-24 14:53 25.24443 54.91251 13106 ft 332 kts 263°
2026-04-24 14:54 25.24208 54.88650 13404 ft 347 kts 264°
2026-04-24 14:54 25.23972 54.85983 13986 ft 350 kts 264°
2026-04-24 14:54 25.23744 54.83310 14589 ft 353 kts 264°
2026-04-24 14:54 25.23540 54.80603 15178 ft 356 kts 265°
2026-04-24 14:55 25.23423 54.78798 15571 ft 359 kts 266°
2026-04-24 14:55 25.23191 54.75127 16376 ft 362 kts 266°
2026-04-24 14:55 25.22983 54.72350 16956 ft 365 kts 265°
2026-04-24 14:55 25.22771 54.69494 17554 ft 368 kts 266°
2026-04-24 14:56 25.22575 54.66672 18133 ft 371 kts 266°
2026-04-24 14:56 25.22381 54.63843 18637 ft 373 kts 266°
2026-04-24 14:56 25.22186 54.60994 19159 ft 374 kts 265°
2026-04-24 14:56 25.21964 54.58145 19681 ft 375 kts 265°
2026-04-24 14:57 25.21758 54.55244 20178 ft 377 kts 266°
2026-04-24 14:57 25.21692 54.52313 20683 ft 380 kts 270°
2026-04-24 14:57 25.21817 54.49388 21142 ft 382 kts 274°
2026-04-24 14:57 25.22089 54.46512 21615 ft 385 kts 275°
2026-04-24 14:58 25.22454 54.43635 22085 ft 387 kts 277°
2026-04-24 14:58 25.22909 54.40609 22561 ft 390 kts 278°
2026-04-24 14:58 25.23397 54.37682 23014 ft 392 kts 278°
2026-04-24 14:58 25.23911 54.34752 23475 ft 395 kts 278°
2026-04-24 14:59 25.24437 54.31766 23859 ft 397 kts 278°
2026-04-24 14:59 25.24967 54.28755 24246 ft 399 kts 278°
2026-04-24 14:59 25.25497 54.25719 24621 ft 401 kts 278°
2026-04-24 14:59 25.25812 54.23911 24843 ft 403 kts 279°
2026-04-24 15:00 25.26509 54.19895 25333 ft 406 kts 278°
2026-04-24 15:00 25.26878 54.17780 25597 ft 408 kts 279°
2026-04-24 15:00 25.27412 54.14686 25840 ft 412 kts 278°
2026-04-24 15:00 25.27928 54.11590 25871 ft 425 kts 278°
2026-04-24 15:01 25.28459 54.08257 25862 ft 435 kts 278°
2026-04-24 15:01 25.28990 54.05019 25870 ft 438 kts 278°
2026-04-24 15:01 25.29558 54.01708 25871 ft 437 kts 279°
2026-04-24 15:01 25.30136 53.98439 25874 ft 437 kts 279°
2026-04-24 15:02 25.30750 53.95139 25877 ft 437 kts 280°
2026-04-24 15:02 25.31391 53.91863 25872 ft 437 kts 280°
2026-04-24 15:02 25.32054 53.88580 25872 ft 437 kts 281°
2026-04-24 15:02 25.32726 53.85311 25873 ft 437 kts 280°
2026-04-24 15:03 25.33401 53.82029 25871 ft 437 kts 281°
2026-04-24 15:03 25.34071 53.78766 25873 ft 437 kts 281°
2026-04-24 15:03 25.34736 53.75529 25875 ft 437 kts 281°
2026-04-24 15:03 25.35383 53.72255 25881 ft 436 kts 280°
2026-04-24 15:04 25.35996 53.68979 25873 ft 435 kts 279°
2026-04-24 15:04 25.36611 53.65697 25873 ft 435 kts 279°
2026-04-24 15:04 25.37273 53.62440 25874 ft 435 kts 281°
2026-04-24 15:04 25.38049 53.59222 25874 ft 436 kts 284°
2026-04-24 15:05 25.38951 53.56180 25878 ft 437 kts 287°
2026-04-24 15:05 25.39951 53.53032 25876 ft 437 kts 288°
2026-04-24 15:05 25.41038 53.49888 25877 ft 438 kts 289°
2026-04-24 15:05 25.42186 53.46761 25879 ft 438 kts 290°
2026-04-24 15:06 25.43359 53.43703 25882 ft 438 kts 290°
2026-04-24 15:06 25.44598 53.40560 25880 ft 438 kts 290°
2026-04-24 15:06 25.45764 53.37497 25886 ft 437 kts 289°
2026-04-24 15:06 25.46851 53.34366 25885 ft 437 kts 287°
2026-04-24 15:07 25.47826 53.31190 25884 ft 436 kts 285°
2026-04-24 15:07 25.48709 53.27977 25885 ft 435 kts 284°
2026-04-24 15:07 25.49521 53.24748 25885 ft 435 kts 283°
2026-04-24 15:07 25.50289 53.21474 25886 ft 435 kts 282°
2026-04-24 15:08 25.51019 53.18204 25887 ft 435 kts 281°
2026-04-24 15:08 25.51718 53.14953 25887 ft 435 kts 281°
2026-04-24 15:08 25.52403 53.11689 25890 ft 435 kts 281°
2026-04-24 15:08 25.53081 53.08409 25889 ft 436 kts 281°
2026-04-24 15:09 25.53756 53.05102 25891 ft 436 kts 281°
2026-04-24 15:09 25.54425 53.01808 25890 ft 436 kts 281°
2026-04-24 15:09 25.55067 52.98611 25889 ft 436 kts 281°
2026-04-24 15:09 25.55748 52.95239 25893 ft 437 kts 281°
2026-04-24 15:10 25.56508 52.91982 25895 ft 437 kts 284°
2026-04-24 15:10 25.57443 52.88767 25895 ft 438 kts 287°
2026-04-24 15:10 25.58483 52.85623 25895 ft 439 kts 289°
2026-04-24 15:10 25.59615 52.82458 25895 ft 439 kts 290°
2026-04-24 15:11 25.60791 52.79340 25898 ft 439 kts 291°
2026-04-24 15:11 25.62023 52.76223 25898 ft 439 kts 292°
2026-04-24 15:11 25.63341 52.73181 25898 ft 439 kts 295°
2026-04-24 15:11 25.64869 52.70164 25900 ft 441 kts 299°
2026-04-24 15:12 25.66565 52.67321 25900 ft 442 kts 303°
2026-04-24 15:12 25.70498 52.62068 25906 ft 444 kts 310°
2026-04-24 15:12 25.72609 52.59563 25904 ft 444 kts 309°
2026-04-24 15:13 25.74648 52.57008 25904 ft 443 kts 307°
2026-04-24 15:13 25.76567 52.54397 25903 ft 441 kts 305°
2026-04-24 15:13 25.78403 52.51676 25904 ft 440 kts 303°
2026-04-24 15:13 25.80129 52.48878 25909 ft 439 kts 300°
2026-04-24 15:14 25.81800 52.45997 25908 ft 438 kts 299°
2026-04-24 15:14 25.83391 52.43111 25907 ft 437 kts 298°
2026-04-24 15:14 25.84907 52.40197 25910 ft 436 kts 296°
2026-04-24 15:14 25.86348 52.37276 25910 ft 435 kts 295°
2026-04-24 15:15 25.87749 52.34297 25909 ft 435 kts 295°
2026-04-24 15:15 25.89132 52.31309 25913 ft 434 kts 295°
2026-04-24 15:15 25.90513 52.28330 25914 ft 434 kts 295°
2026-04-24 15:15 25.91904 52.25355 25912 ft 434 kts 295°
2026-04-24 15:16 25.93369 52.22426 25922 ft 434 kts 295°
2026-04-24 15:16 25.94762 52.19440 25915 ft 434 kts 294°
2026-04-24 15:16 25.96115 52.16455 25916 ft 433 kts 294°
2026-04-24 15:16 25.97475 52.13453 25916 ft 433 kts 294°
2026-04-24 15:17 25.98829 52.10465 25916 ft 433 kts 294°
2026-04-24 15:17 26.00204 52.07488 25904 ft 433 kts 297°
2026-04-24 15:17 26.01798 52.04690 25783 ft 422 kts 302°
2026-04-24 15:17 26.03581 52.02144 25239 ft 418 kts 307°
2026-04-24 15:18 26.05567 51.99787 24261 ft 427 kts 312°
2026-04-24 15:18 26.07759 51.97562 23710 ft 425 kts 316°
2026-04-24 15:18 26.10075 51.95568 23220 ft 418 kts 320°
2026-04-24 15:18 26.12374 51.93633 22664 ft 411 kts 317°
2026-04-24 15:19 26.14528 51.91583 22125 ft 403 kts 313°
2026-04-24 15:19 26.16474 51.89396 21585 ft 395 kts 308°
2026-04-24 15:19 26.18217 51.87056 21042 ft 389 kts 304°
2026-04-24 15:19 26.19792 51.84638 20297 ft 388 kts 301°
2026-04-24 15:20 26.21296 51.82146 19723 ft 385 kts 300°
2026-04-24 15:20 26.22735 51.79680 19406 ft 376 kts 299°
2026-04-24 15:20 26.24151 51.77229 18843 ft 373 kts 299°
2026-04-24 15:20 26.25563 51.74777 18174 ft 375 kts 299°
2026-04-24 15:21 26.26961 51.72351 17755 ft 368 kts 299°
2026-04-24 15:21 26.28328 51.69973 17462 ft 363 kts 299°
2026-04-24 15:21 26.29691 51.67610 17131 ft 363 kts 299°
2026-04-24 15:21 26.30572 51.66101 16887 ft 362 kts 299°
2026-04-24 15:22 26.32392 51.63045 16404 ft 360 kts 300°
2026-04-24 15:22 26.33712 51.60802 16053 ft 358 kts 300°
2026-04-24 15:22 26.35052 51.58489 15699 ft 356 kts 299°
2026-04-24 15:23 26.37681 51.53891 15046 ft 353 kts 297°
2026-04-24 15:23 26.39564 51.48932 14399 ft 347 kts 286°
2026-04-24 15:23 26.40307 51.46350 14071 ft 346 kts 285°
2026-04-24 15:24 26.42214 51.39563 13219 ft 333 kts 285°
2026-04-24 15:25 26.43636 51.34768 12664 ft 315 kts 287°
2026-04-24 15:25 26.45021 51.30283 12213 ft 298 kts 287°
2026-04-24 15:26 26.45786 51.23792 11471 ft 276 kts 254°
2026-04-24 15:27 26.44216 51.17802 10699 ft 262 kts 257°
2026-04-24 15:27 26.43220 51.11939 9911 ft 251 kts 259°
2026-04-24 15:28 26.41967 51.04439 8825 ft 242 kts 260°
2026-04-24 15:29 26.41377 51.00850 8421 ft 233 kts 260°
2026-04-24 15:30 26.40338 50.94948 7178 ft 275 kts 258°
2026-04-24 15:31 26.38830 50.86688 5752 ft 267 kts 260°
2026-04-24 15:32 26.35695 50.79843 5000 ft 258 kts 211°
2026-04-24 15:33 26.29282 50.80854 4740 ft 274 kts 122°
2026-04-24 15:33 26.26272 50.86252 3889 ft 270 kts 120°
2026-04-24 15:34 26.24251 50.89735 3355 ft 265 kts 121°
2026-04-24 15:35 26.21387 50.94564 2590 ft 231 kts 121°
2026-04-24 15:35 26.19137 50.96565 2063 ft 214 kts 174°
2026-04-24 15:35 26.17697 50.96249 1997 ft 212 kts 210°
2026-04-24 15:36 26.16458 50.95402 1993 ft 208 kts 216°
2026-04-24 15:36 26.15270 50.92705 2009 ft 201 kts 274°
2026-04-24 15:36 26.15289 50.91155 1999 ft 200 kts 275°
2026-04-24 15:37 26.15314 50.89599 2003 ft 200 kts 275°
2026-04-24 15:37 26.15338 50.88069 1996 ft 201 kts 275°
2026-04-24 15:37 26.15357 50.86501 2007 ft 206 kts 274°
2026-04-24 15:37 26.15422 50.84874 1996 ft 214 kts 281°
2026-04-24 15:38 26.15773 50.83256 2003 ft 214 kts 294°
2026-04-24 15:38 26.16375 50.81867 1995 ft 191 kts 303°
2026-04-24 15:38 26.17058 50.80630 1998 ft 186 kts 306°
2026-04-24 15:38 26.17760 50.79429 1993 ft 184 kts 303°
2026-04-24 15:39 26.18433 50.78225 1963 ft 183 kts 305°
2026-04-24 15:39 26.19097 50.77027 1997 ft 181 kts 306°
2026-04-24 15:39 26.19807 50.75819 2001 ft 186 kts 307°
2026-04-24 15:39 26.20472 50.74686 1988 ft 162 kts 304°
2026-04-24 15:40 26.21039 50.73686 1972 ft 150 kts 305°
2026-04-24 15:40 26.21558 50.72723 1927 ft 142 kts 306°
2026-04-24 15:40 26.22070 50.71793 1854 ft 140 kts 308°
2026-04-24 15:40 26.22596 50.70864 1729 ft 142 kts 307°
2026-04-24 15:41 26.23115 50.69942 1564 ft 140 kts 307°
2026-04-24 15:41 26.23642 50.69038 1308 ft 140 kts 307°
2026-04-24 15:41 26.24184 50.68161 1096 ft 140 kts 308°
2026-04-24 15:41 26.24751 50.67271 897 ft 137 kts 308°
2026-04-24 15:42 26.25297 50.66411 524 ft 134 kts 307°
2026-04-24 15:42 26.25825 50.65557 253 ft 135 kts 305°
2026-04-24 15:42 26.26327 50.64676 67 ft 133 kts 303°
2026-04-24 15:42 26.26803 50.63841 23 ft 110 kts 303°
2026-04-24 15:43 26.27104 50.63326 21 ft 31 kts 303°
2026-04-24 15:43 26.27187 50.63186 22 ft 20 kts 304°
2026-04-24 15:43 26.27239 50.63058 22 ft 18 kts 282°
2026-04-24 15:43 26.27254 50.62945 22 ft 11 kts 276°
2026-04-24 15:44 26.27256 50.62879 25 ft 7 kts 255°
2026-04-24 15:44 26.27224 50.62845 26 ft 6 kts 186°
2026-04-24 15:44 26.27182 50.62865 28 ft 8 kts 140°
2026-04-24 15:44 26.27132 50.62920 27 ft 12 kts 133°
2026-04-24 15:45 26.27092 50.62994 27 ft 13 kts 124°
2026-04-24 15:45 26.27027 50.63096 30 ft 19 kts 125°
2026-04-24 15:45 26.26944 50.63235 29 ft 23 kts 123°
2026-04-24 15:45 26.26873 50.63354 27 ft 11 kts 133°
2026-04-24 15:46 26.26841 50.63372 27 ft 2 kts 175°
2026-04-24 15:46 26.26817 50.63370 29 ft 5 kts 188°
2026-04-24 15:46 26.26770 50.63377 29 ft 7 kts 156°
2026-04-24 15:46 26.26739 50.63406 28 ft 7 kts 125°
2026-04-24 15:47 26.26711 50.63433 30 ft 1 kts 175°
2026-04-24 15:47 26.26697 50.63430 27 ft 3 kts 206°
2026-04-24 15:47 26.26673 50.63414 28 ft 5 kts 213°
2026-04-24 15:47 26.26648 50.63396 30 ft 1 kts 213°
2026-04-24 15:48 26.26637 50.63388 29 ft 0 kts 213°